Lid_Strength_Index
3 3 3 3 3 3 3 4 4 4 3 3 3 3 3 3 3 3 3 2 2 2 2 2 3 3 5 9 10 7 3 4 5 6 7 5 7 8 10 10 7 8 8 7 6 5 6
3 3 3 3 3 3 3 3 3 3 3 3 3 3 3 3 3 3 2 2 2 3 3 2 2 3 7 12 6 5 5 5 6 7 8 6 6 7 8 9 10 8 7 7 6 6 6
3 3 3 3 3 3 3 3 3 3 3 3 3 3 3 3 3 3 2 2 2 2 1 2 3 4 8 9 5 4 4 5 5 6 8 8 7 6 8 9 7 9 10 9 7 6 7
4 4 4 4 4 4 3 3 3 3 3 3 3 3 3 3 3 3 2 2 2 2 1 2 2 5 9 5 3 4 4 5 5 5 6 6 8 9 7 7 8 9 10 13 9 9 8
4 4 4 4 4 4 4 4 4 4 3 3 3 3 3 3 3 3 2 2 2 2 1 2 4 6 9 4 6 4 4 6 6 6 6 6 7 9 9 10 11 10 12 11 11 9 9
4 4 4 4 4 4 4 4 3 3 3 3 3 4 4 3 3 3 3 2 2 1 2 3 4 8 7 9 6 6 5 5 7 7 8 8 8 10 10 11 15 13 13 11 11 9 9
4 4 4 4 4 4 4 4 4 3 3 3 3 3 3 3 3 3 4 5 7 8 7 9 9 9 9 6 5 7 6 7 7 8 11 10 12 14 12 10 10 11 11 11 10 8 9
5 4 4 4 4 4 4 4 4 3 3 3 3 3 3 3 3 3 5 7 7 7 10 8 8 8 7 7 9 7 5 9 9 11 10 12 14 11 10 10 11 11 12 12 10 9 9
4 4 4 4 4 4 4 4 4 4 3 3 3 3 3 3 3 5 6 6 5 7 10 9 8 8 7 6 9 7 5 6 8 8 8 10 11 9 10 11 12 11 12 12 12 10 9
5 5 4 4 4 4 4 4 4 4 4 4 4 4 4 4 6 6 6 5 5 6 12 12 9 8 6 6 8 3 3 4 6 8 8 8 7 9 10 11 10 12 10 11 11 11 13
5 5 5 4 4 4 4 4 4 4 4 4 4 4 4 4 6 6 5 4 5 7 19 11 9 4 5 7 6 5 2 4 8 8 8 9 8 9 10 9 8 11 9 10 11 12 12
4 4 4 4 4 4 4 4 4 4 4 4 4 4 4 5 5 5 4 5 6 13 19 12 8 9 8 6 6 5 5 3 4 8 7 8 6 7 8 8 7 7 9 9 10 12 16
4 4 4 4 4 4 4 4 4 4 4 4 4 4 5 5 6 5 5 7 13 16 11 12 11 9 8 9 7 7 8 8 11 13 12 10 9 7 6 9 8 8 10 14 16 16 18
5 4 4 4 4 4 5 5 5 4 4 4 4 6 5 4 4 4 7 11 17 14 12 9 9 8 10 8 8 8 9 10 8 10 13 16 15 10 7 8 10 10 10 13 18 17 17
5 5 4 4 4 5 5 5 5 5 5 5 6 6 5 4 4 5 8 14 14 12 10 10 9 11 11 9 9 9 10 10 9 9 14 15 15 9 8 7 7 10 12 9 12 12 15
5 5 4 5 5 4 5 5 5 5 5 5 7 7 6 5 4 5 9 13 12 9 8 9 13 10 13 11 11 11 10 8 9 8 8 11 16 10 10 7 7 8 8 13 12 16 18
5 4 4 4 4 5 5 5 5 5 5 6 8 8 5 5 4 7 12 12 10 8 7 9 11 11 11 12 11 11 11 8 8 8 7 9 12 12 10 11 10 9 10 10 10 12 15
4 4 4 4 4 4 4 5 5 5 6 6 9 10 6 6 8 11 11 11 9 8 7 8 8 9 10 10 11 11 11 9 6 7 10 9 12 14 12 8 7 9 10 10 13 14 13
4 4 4 4 4 4 4 5 5 5 6 7 11 10 6 7 12 11 11 11 9 9 9 8 9 8 8 11 13 11 10 7 6 8 9 9 12 15 13 11 9 10 10 9 10 11 13
4 4 4 4 4 4 4 4 4 5 5 7 10 12 10 10 10 11 12 12 11 8 8 7 8 7 9 11 9 11 11 8 6 7 6 7 11 13 16 13 11 13 11 10 11 13 13
4 4 4 4 4 4 4 4 4 5 6 9 12 13 12 14 13 12 11 12 12 11 8 7 9 9 10 13 12 12 9 9 7 6 7 8 13 12 11 11 11 11 11 11 12 11 14
4 4 4 4 4 4 4 4 5 5 6 10 12 12 11 13 12 11 11 12 12 10 10 10 10 9 9 11 11 12 10 10 11 8 9 8 13 11 13 10 11 12 10 10 10 10 11
4 4 4 4 3 3 4 4 5 5 6 9 10 11 11 13 13 13 11 11 12 10 9 8 8 9 10 8 7 7 7 8 8 10 10 11 12 13 15 11 12 14 11 10 10 9 9
3 3 3 3 3 4 4 4 4 5 6 8 9 10 13 14 14 12 11 10 12 10 11 8 7 9 6 5 6 6 8 8 9 9 9 12 12 13 15 13 19 11 9 10 11 10 9
3 3 3 3 4 5 5 5 5 5 5 7 8 9 12 14 13 12 11 10 11 9 10 9 6 5 5 7 9 11 11 11 11 9 10 10 12 15 17 17 14 12 11 12 13 12 8
3 3 3 4 5 4 5 5 5 5 5 5 7 7 10 13 12 11 11 10 12 11 10 8 6 4 6 8 10 14 16 13 14 12 9 9 11 14 15 18 19 14 10 9 9 16 8
4 4 4 5 5 5 5 6 5 5 5 5 6 6 9 13 11 10 12 11 10 10 11 9 8 7 7 10 13 14 14 11 15 15 14 13 13 15 15 17 14 10 9 9 16 15 8
5 5 5 5 5 5 5 5 5 5 5 5 6 6 9 11 10 9 8 9 9 10 12 8 9 8 9 11 12 12 13 12 13 11 13 14 15 15 15 17 18 8 10 13 10 8 8
6 6 6 6 6 6 5 5 5 5 5 5 7 5 6 10 10 7 6 5 5 7 9 8 8 8 8 10 10 10 12 11 12 15 9 14 12 14 13 14 8 8 9 8 7 7 7